Time,TemperatureF,DewpointF,PressureIn,WindDirection,WindDirectionDegrees,WindSpeedMPH,WindSpeedGustMPH,Humidity,HourlyPrecipIn,Conditions,Clouds,dailyrainin,SoftwareType,DateUTC
2013-06-11 00:02:00,58.6,48.9,29.64,ESE,110,5.0,13.0,70,0.00,,---,0.00,VWS V13.00,2013-06-11 06:02:00,
2013-06-11 00:07:00,58.3,49.0,29.64,East,101,8.0,13.0,71,0.00,,---,0.00,VWS V13.00,2013-06-11 06:07:00,
2013-06-11 00:12:00,58.3,49.0,29.64,ESE,109,9.0,9.0,71,0.00,,---,0.00,VWS V13.00,2013-06-11 06:12:00,
2013-06-11 00:17:00,58.3,49.0,29.64,East,101,10.0,17.0,71,0.00,,---,0.00,VWS V13.00,2013-06-11 06:17:00,
2013-06-11 00:22:00,58.3,49.0,29.64,ESE,111,14.0,17.0,71,0.00,,---,0.00,VWS V13.00,2013-06-11 06:22:00,
2013-06-11 00:27:00,58.2,48.8,29.64,ESE,103,10.0,17.0,71,0.00,,---,0.00,VWS V13.00,2013-06-11 06:27:00,
2013-06-11 00:32:00,58.1,48.8,29.64,ESE,103,8.0,17.0,71,0.00,,---,0.00,VWS V13.00,2013-06-11 06:32:00,
2013-06-11 00:37:00,58.0,49.0,29.64,ESE,107,2.0,17.0,72,0.00,,---,0.00,VWS V13.00,2013-06-11 06:37:00,
2013-06-11 00:42:00,57.9,48.9,29.64,ESE,117,5.0,13.0,72,0.00,,---,0.00,VWS V13.00,2013-06-11 06:42:00,
2013-06-11 00:47:00,57.7,49.1,29.64,ESE,110,7.0,13.0,73,0.00,,---,0.00,VWS V13.00,2013-06-11 06:47:00,
2013-06-11 00:52:00,57.6,49.0,29.64,ESE,106,7.0,13.0,73,0.00,,---,0.00,VWS V13.00,2013-06-11 06:52:00,
2013-06-11 00:57:00,57.7,48.8,29.64,ESE,106,13.0,15.0,72,0.00,,---,0.00,VWS V13.00,2013-06-11 06:57:00,
2013-06-11 01:02:00,58.0,48.7,29.64,ESE,107,13.0,17.0,71,0.00,,---,0.00,VWS V13.00,2013-06-11 07:02:00,
2013-06-11 01:07:00,58.1,48.8,29.63,ESE,123,7.0,17.0,71,0.00,,---,0.00,VWS V13.00,2013-06-11 07:07:00,
2013-06-11 01:12:00,57.9,48.9,29.63,ESE,115,5.0,16.0,72,0.00,,---,0.00,VWS V13.00,2013-06-11 07:12:00,
2013-06-11 01:17:00,57.8,48.5,29.63,ESE,120,9.0,16.0,71,0.00,,---,0.00,VWS V13.00,2013-06-11 07:17:00,
2013-06-11 01:22:00,57.9,48.9,29.63,SE,130,3.0,16.0,72,0.00,,---,0.00,VWS V13.00,2013-06-11 07:22:00,
2013-06-11 01:27:00,57.9,48.6,29.64,ESE,115,5.0,16.0,71,0.00,,---,0.00,VWS V13.00,2013-06-11 07:27:00,
2013-06-11 01:32:00,57.9,48.9,29.64,ESE,115,10.0,16.0,72,0.00,,---,0.00,VWS V13.00,2013-06-11 07:32:00,
2013-06-11 01:37:00,57.8,48.8,29.64,ESE,119,10.0,16.0,72,0.00,,---,0.00,VWS V13.00,2013-06-11 07:37:00,
2013-06-11 01:42:00,57.9,48.6,29.65,East,98,6.0,10.0,71,0.00,,---,0.00,VWS V13.00,2013-06-11 07:42:00,
2013-06-11 01:47:00,57.7,48.8,29.65,ESE,114,6.0,11.0,72,0.00,,---,0.00,VWS V13.00,2013-06-11 07:47:00,
2013-06-11 01:52:00,57.6,48.7,29.65,ESE,111,7.0,12.0,72,0.00,,---,0.00,VWS V13.00,2013-06-11 07:52:00,
2013-06-11 01:57:00,57.6,48.7,29.63,SE,129,13.0,14.0,72,0.00,,---,0.00,VWS V13.00,2013-06-11 07:57:00,
2013-06-11 02:02:00,57.7,48.8,29.63,ESE,109,13.0,14.0,72,0.00,,---,0.00,VWS V13.00,2013-06-11 08:02:00,
2013-06-11 02:07:00,57.7,48.8,29.63,East,97,16.0,17.0,72,0.00,,---,0.00,VWS V13.00,2013-06-11 08:07:00,
2013-06-11 02:12:00,57.7,48.8,29.62,East,97,12.0,17.0,72,0.00,,---,0.00,VWS V13.00,2013-06-11 08:12:00,
2013-06-11 02:17:00,57.7,48.4,29.62,ESE,109,6.0,17.0,71,0.00,,---,0.00,VWS V13.00,2013-06-11 08:17:00,
2013-06-11 02:22:00,57.8,48.5,29.62,ESE,103,6.0,17.0,71,0.00,,---,0.00,VWS V13.00,2013-06-11 08:22:00,
2013-06-11 02:27:00,57.9,48.2,29.63,ESE,108,5.0,17.0,70,0.00,,---,0.00,VWS V13.00,2013-06-11 08:27:00,
2013-06-11 02:32:00,57.7,48.4,29.63,ESE,117,4.0,17.0,71,0.00,,---,0.00,VWS V13.00,2013-06-11 08:32:00,
2013-06-11 02:37:00,57.7,48.4,29.63,SE,129,7.0,17.0,71,0.00,,---,0.00,VWS V13.00,2013-06-11 08:37:00,
2013-06-11 02:42:00,57.7,48.4,29.63,SE,125,1.0,10.0,71,0.00,,---,0.00,VWS V13.00,2013-06-11 08:42:00,
2013-06-11 02:47:00,57.6,48.3,29.63,ESE,113,6.0,10.0,71,0.00,,---,0.00,VWS V13.00,2013-06-11 08:47:00,
2013-06-11 02:52:00,57.5,48.6,29.63,East,90,4.0,11.0,72,0.00,,---,0.00,VWS V13.00,2013-06-11 08:52:00,
2013-06-11 02:57:00,57.3,48.0,29.61,ESE,123,7.0,11.0,71,0.00,,---,0.00,VWS V13.00,2013-06-11 08:57:00,
2013-06-11 03:02:00,57.3,48.4,29.61,ESE,122,8.0,12.0,72,0.00,,---,0.00,VWS V13.00,2013-06-11 09:02:00,
2013-06-11 03:07:00,57.3,48.4,29.61,ESE,107,6.0,12.0,72,0.00,,---,0.00,VWS V13.00,2013-06-11 09:07:00,
2013-06-11 03:12:00,57.2,48.3,29.63,ESE,107,6.0,10.0,72,0.00,,---,0.00,VWS V13.00,2013-06-11 09:12:00,
2013-06-11 03:17:00,57.0,48.1,29.63,SE,131,6.0,12.0,72,0.00,,---,0.00,VWS V13.00,2013-06-11 09:17:00,
2013-06-11 03:22:00,57.0,48.1,29.63,SE,126,15.0,15.0,72,0.00,,---,0.00,VWS V13.00,2013-06-11 09:22:00,
2013-06-11 03:27:00,57.1,48.2,29.62,SE,134,11.0,17.0,72,0.00,,---,0.00,VWS V13.00,2013-06-11 09:27:00,
2013-06-11 03:32:00,57.0,48.1,29.62,ESE,113,4.0,17.0,72,0.00,,---,0.00,VWS V13.00,2013-06-11 09:32:00,
2013-06-11 03:37:00,56.8,48.2,29.62,SE,146,16.0,17.0,73,0.00,,---,0.00,VWS V13.00,2013-06-11 09:37:00,
2013-06-11 03:42:00,56.6,47.7,29.62,SE,140,15.0,16.0,72,0.00,,---,0.00,VWS V13.00,2013-06-11 09:42:00,
2013-06-11 03:47:00,56.7,47.8,29.62,ESE,114,5.0,18.0,72,0.00,,---,0.00,VWS V13.00,2013-06-11 09:47:00,
2013-06-11 03:52:00,56.5,48.0,29.62,ESE,104,5.0,18.0,73,0.00,,---,0.00,VWS V13.00,2013-06-11 09:52:00,
2013-06-11 03:57:00,56.2,47.7,29.62,ESE,109,8.0,18.0,73,0.00,,---,0.00,VWS V13.00,2013-06-11 09:57:00,
2013-06-11 04:02:00,56.0,47.8,29.62,ESE,109,6.0,18.0,74,0.00,,---,0.00,VWS V13.00,2013-06-11 10:02:00,
2013-06-11 04:07:00,55.8,47.7,29.62,ESE,121,4.0,18.0,74,0.00,,---,0.00,VWS V13.00,2013-06-11 10:07:00,
2013-06-11 04:12:00,55.8,47.7,29.63,ESE,118,4.0,10.0,74,0.00,,---,0.00,VWS V13.00,2013-06-11 10:12:00,
2013-06-11 04:17:00,55.6,47.8,29.63,ESE,107,3.0,10.0,75,0.00,,---,0.00,VWS V13.00,2013-06-11 10:17:00,
2013-06-11 04:22:00,55.4,47.6,29.63,ESE,115,8.0,14.0,75,0.00,,---,0.00,VWS V13.00,2013-06-11 10:22:00,
2013-06-11 04:27:00,55.3,47.9,29.63,ESE,114,5.0,14.0,76,0.00,,---,0.00,VWS V13.00,2013-06-11 10:27:00,
2013-06-11 04:32:00,55.3,47.9,29.63,ESE,114,11.0,15.0,76,0.00,,---,0.00,VWS V13.00,2013-06-11 10:32:00,
2013-06-11 04:37:00,55.1,47.7,29.63,ESE,105,10.0,15.0,76,0.00,,---,0.00,VWS V13.00,2013-06-11 10:37:00,
2013-06-11 04:42:00,55.0,47.6,29.63,ESE,121,12.0,15.0,76,0.00,,---,0.00,VWS V13.00,2013-06-11 10:42:00,
2013-06-11 04:47:00,54.8,47.7,29.63,ESE,117,4.0,15.0,77,0.00,,---,0.00,VWS V13.00,2013-06-11 10:47:00,
2013-06-11 04:52:00,54.7,47.6,29.62,ESE,121,12.0,16.0,77,0.00,,---,0.00,VWS V13.00,2013-06-11 10:52:00,
2013-06-11 04:57:00,54.6,47.5,29.62,ESE,119,9.0,17.0,77,0.00,,---,0.00,VWS V13.00,2013-06-11 10:57:00,
2013-06-11 05:02:00,54.5,47.5,29.62,ESE,111,12.0,17.0,77,0.00,,---,0.00,VWS V13.00,2013-06-11 11:02:00,
2013-06-11 05:07:00,54.5,47.5,29.61,ESE,117,12.0,17.0,77,0.00,,---,0.00,VWS V13.00,2013-06-11 11:07:00,
2013-06-11 05:12:00,54.6,47.5,29.61,ESE,110,11.0,16.0,77,0.00,,---,0.00,VWS V13.00,2013-06-11 11:12:00,
2013-06-11 05:17:00,54.6,47.5,29.61,ESE,113,11.0,16.0,77,0.00,,---,0.00,VWS V13.00,2013-06-11 11:17:00,
2013-06-11 05:22:00,54.5,47.8,29.61,ESE,110,7.0,16.0,78,0.00,,---,0.00,VWS V13.00,2013-06-11 11:22:00,
2013-06-11 05:27:00,54.4,47.7,29.61,ESE,110,5.0,16.0,78,0.00,,---,0.00,VWS V13.00,2013-06-11 11:27:00,
2013-06-11 05:32:00,54.5,48.1,29.61,ESE,103,3.0,16.0,79,0.00,,---,0.00,VWS V13.00,2013-06-11 11:32:00,
2013-06-11 05:37:00,54.5,48.1,29.62,East,93,2.0,16.0,79,0.00,,---,0.00,VWS V13.00,2013-06-11 11:37:00,
2013-06-11 05:42:00,54.4,48.0,29.62,East,101,6.0,9.0,79,0.00,,---,0.00,VWS V13.00,2013-06-11 11:42:00,
2013-06-11 05:47:00,54.4,48.0,29.62,ESE,103,3.0,12.0,79,0.00,,---,0.00,VWS V13.00,2013-06-11 11:47:00,
2013-06-11 05:52:00,54.5,48.1,29.62,ESE,111,7.0,14.0,79,0.00,,---,0.00,VWS V13.00,2013-06-11 11:52:00,
2013-06-11 05:57:00,54.7,47.6,29.64,East,99,15.0,19.0,77,0.00,,---,0.00,VWS V13.00,2013-06-11 11:57:00,
2013-06-11 06:02:00,54.8,47.7,29.64,ESE,118,11.0,19.0,77,0.00,,---,0.00,VWS V13.00,2013-06-11 12:02:00,
2013-06-11 06:07:00,54.8,48.1,29.64,ESE,105,5.0,19.0,78,0.00,,---,0.00,VWS V13.00,2013-06-11 12:07:00,
2013-06-11 06:12:00,54.7,48.0,29.65,ESE,109,4.0,12.0,78,0.00,,---,0.00,VWS V13.00,2013-06-11 12:12:00,
2013-06-11 06:17:00,54.6,48.2,29.65,East,100,10.0,12.0,79,0.00,,---,0.00,VWS V13.00,2013-06-11 12:17:00,
2013-06-11 06:22:00,54.5,48.1,29.65,ESE,109,4.0,14.0,79,0.00,,---,0.00,VWS V13.00,2013-06-11 12:22:00,
2013-06-11 06:27:00,54.4,48.0,29.64,ESE,107,17.0,19.0,79,0.00,,---,0.00,VWS V13.00,2013-06-11 12:27:00,
2013-06-11 06:32:00,54.4,48.0,29.64,ESE,120,6.0,20.0,79,0.00,,---,0.00,VWS V13.00,2013-06-11 12:32:00,
2013-06-11 06:37:00,54.4,48.4,29.64,SE,127,14.0,20.0,80,0.00,,---,0.00,VWS V13.00,2013-06-11 12:37:00,
2013-06-11 06:42:00,54.7,48.7,29.63,ESE,116,9.0,18.0,80,0.00,,---,0.00,VWS V13.00,2013-06-11 12:42:00,
2013-06-11 06:47:00,54.9,48.9,29.63,ESE,119,11.0,18.0,80,0.00,,---,0.00,VWS V13.00,2013-06-11 12:47:00,
2013-06-11 06:52:00,55.0,49.0,29.63,ESE,121,4.0,18.0,80,0.00,,---,0.00,VWS V13.00,2013-06-11 12:52:00,
2013-06-11 06:57:00,55.1,49.4,29.65,ESE,115,5.0,18.0,81,0.00,,---,0.00,VWS V13.00,2013-06-11 12:57:00,
2013-06-11 07:02:00,55.3,49.2,29.65,ESE,114,11.0,18.0,80,0.00,,---,0.00,VWS V13.00,2013-06-11 13:02:00,
2013-06-11 07:07:00,55.9,49.8,29.65,ESE,106,12.0,18.0,80,0.00,,---,0.00,VWS V13.00,2013-06-11 13:07:00,
2013-06-11 07:12:00,56.0,49.6,29.66,ESE,113,14.0,14.0,79,0.00,,---,0.00,VWS V13.00,2013-06-11 13:12:00,
2013-06-11 07:17:00,56.6,50.2,29.66,ESE,106,13.0,14.0,79,0.00,,---,0.00,VWS V13.00,2013-06-11 13:17:00,
2013-06-11 07:22:00,57.2,50.8,29.66,East,96,6.0,14.0,79,0.00,,---,0.00,VWS V13.00,2013-06-11 13:22:00,
2013-06-11 07:27:00,57.7,50.9,29.67,ESE,117,2.0,14.0,78,0.00,,---,0.00,VWS V13.00,2013-06-11 13:27:00,
2013-06-11 07:32:00,57.7,50.5,29.67,East,100,4.0,14.0,77,0.00,,---,0.00,VWS V13.00,2013-06-11 13:32:00,
2013-06-11 07:37:00,57.3,50.2,29.67,ESE,110,3.0,14.0,77,0.00,,---,0.00,VWS V13.00,2013-06-11 13:37:00,
2013-06-11 07:42:00,57.2,50.8,29.68,East,90,4.0,4.0,79,0.00,,---,0.00,VWS V13.00,2013-06-11 13:42:00,
2013-06-11 07:47:00,56.9,50.1,29.68,East,88,1.0,4.0,78,0.00,,---,0.00,VWS V13.00,2013-06-11 13:47:00,
2013-06-11 07:52:00,56.6,50.2,29.68,East,83,3.0,5.0,79,0.00,,---,0.00,VWS V13.00,2013-06-11 13:52:00,
2013-06-11 07:57:00,56.3,50.2,29.68,East,100,4.0,5.0,80,0.00,,---,0.00,VWS V13.00,2013-06-11 13:57:00,
2013-06-11 08:02:00,56.5,50.8,29.68,East,101,3.0,5.0,81,0.00,,---,0.00,VWS V13.00,2013-06-11 14:02:00,
2013-06-11 08:07:00,57.4,51.6,29.68,East,99,2.0,5.0,81,0.00,,---,0.00,VWS V13.00,2013-06-11 14:07:00,
2013-06-11 08:12:00,58.2,52.1,29.67,East,98,6.0,8.0,80,0.00,,---,0.00,VWS V13.00,2013-06-11 14:12:00,
2013-06-11 08:17:00,58.4,52.3,29.67,ESE,102,9.0,9.0,80,0.00,,---,0.00,VWS V13.00,2013-06-11 14:17:00,
2013-06-11 08:22:00,58.4,51.9,29.66,ESE,105,6.0,11.0,79,0.00,,---,0.00,VWS V13.00,2013-06-11 14:22:00,
2013-06-11 08:27:00,58.0,51.5,29.66,East,95,12.0,13.0,79,0.00,,---,0.00,VWS V13.00,2013-06-11 14:27:00,
2013-06-11 08:32:00,57.8,51.3,29.66,East,88,10.0,14.0,79,0.00,,---,0.00,VWS V13.00,2013-06-11 14:32:00,
2013-06-11 08:37:00,57.6,51.8,29.62,ESE,105,13.0,17.0,81,0.00,,---,0.00,VWS V13.00,2013-06-11 14:37:00,
2013-06-11 08:42:00,57.6,51.5,29.62,East,96,15.0,18.0,80,0.00,,---,0.00,VWS V13.00,2013-06-11 14:42:00,
2013-06-11 08:47:00,57.6,51.5,29.62,East,100,6.0,18.0,80,0.00,,---,0.00,VWS V13.00,2013-06-11 14:47:00,
2013-06-11 08:52:00,57.7,51.2,29.65,ESE,122,12.0,18.0,79,0.00,,---,0.00,VWS V13.00,2013-06-11 14:52:00,
2013-06-11 08:57:00,57.8,51.7,29.65,ESE,109,0.0,18.0,80,0.00,,---,0.00,VWS V13.00,2013-06-11 14:57:00,
2013-06-11 09:02:00,58.4,52.3,29.65,ESE,111,11.0,18.0,80,0.00,,---,0.00,VWS V13.00,2013-06-11 15:02:00,
2013-06-11 09:07:00,59.0,52.5,29.65,East,87,4.0,18.0,79,0.00,,---,0.00,VWS V13.00,2013-06-11 15:07:00,
2013-06-11 09:12:00,59.0,52.8,29.66,East,90,7.0,14.0,80,0.00,,---,0.00,VWS V13.00,2013-06-11 15:12:00,
2013-06-11 09:17:00,59.0,52.2,29.66,ESE,103,12.0,14.0,78,0.00,,---,0.00,VWS V13.00,2013-06-11 15:17:00,
2013-06-11 09:22:00,58.7,52.2,29.67,ESE,112,6.0,14.0,79,0.00,,---,0.00,VWS V13.00,2013-06-11 15:22:00,
2013-06-11 09:27:00,59.0,52.8,29.67,ESE,109,5.0,14.0,80,0.00,,---,0.00,VWS V13.00,2013-06-11 15:27:00,
2013-06-11 09:32:00,60.0,53.8,29.67,East,98,7.0,14.0,80,0.00,,---,0.00,VWS V13.00,2013-06-11 15:32:00,
2013-06-11 09:37:00,60.7,53.5,29.67,ENE,76,7.0,14.0,77,0.00,,---,0.00,VWS V13.00,2013-06-11 15:37:00,
2013-06-11 09:42:00,61.2,54.6,29.67,ENE,73,6.0,7.0,79,0.00,,---,0.00,VWS V13.00,2013-06-11 15:42:00,
2013-06-11 09:47:00,61.5,54.2,29.67,ENE,78,2.0,7.0,77,0.00,,---,0.00,VWS V13.00,2013-06-11 15:47:00,
2013-06-11 09:52:00,62.2,55.3,29.67,NE,40,3.0,9.0,78,0.00,,---,0.00,VWS V13.00,2013-06-11 15:52:00,
2013-06-11 09:57:00,62.8,55.5,29.67,NNE,32,5.0,9.0,77,0.00,,---,0.00,VWS V13.00,2013-06-11 15:57:00,
2013-06-11 10:02:00,63.4,56.1,29.67,North,355,4.0,9.0,77,0.00,,---,0.00,VWS V13.00,2013-06-11 16:02:00,
2013-06-11 10:07:00,63.6,54.8,29.67,NE,52,5.0,11.0,73,0.00,,---,0.00,VWS V13.00,2013-06-11 16:07:00,
2013-06-11 10:12:00,63.6,55.2,29.67,NE,49,0.0,5.0,74,0.00,,---,0.00,VWS V13.00,2013-06-11 16:12:00,
2013-06-11 10:17:00,64.1,55.3,29.67,East,88,6.0,8.0,73,0.00,,---,0.00,VWS V13.00,2013-06-11 16:17:00,
2013-06-11 10:22:00,64.1,54.9,29.67,ESE,118,4.0,10.0,72,0.00,,---,0.00,VWS V13.00,2013-06-11 16:22:00,
2013-06-11 10:27:00,63.9,54.7,29.67,SE,141,4.0,10.0,72,0.00,,---,0.00,VWS V13.00,2013-06-11 16:27:00,
2013-06-11 10:32:00,63.6,53.7,29.67,SE,132,6.0,12.0,70,0.00,,---,0.00,VWS V13.00,2013-06-11 16:32:00,
2013-06-11 10:37:00,63.7,54.9,29.66,SSE,148,6.0,12.0,73,0.00,,---,0.00,VWS V13.00,2013-06-11 16:37:00,
2013-06-11 10:42:00,63.8,54.6,29.66,SSE,161,5.0,8.0,72,0.00,,---,0.00,VWS V13.00,2013-06-11 16:42:00,
2013-06-11 10:47:00,64.0,55.2,29.66,NE,36,4.0,8.0,73,0.00,,---,0.00,VWS V13.00,2013-06-11 16:47:00,
2013-06-11 10:52:00,64.1,54.9,29.66,NE,40,0.0,8.0,72,0.00,,---,0.00,VWS V13.00,2013-06-11 16:52:00,
2013-06-11 10:57:00,64.3,55.1,29.66,ENE,65,2.0,8.0,72,0.00,,---,0.00,VWS V13.00,2013-06-11 16:57:00,
2013-06-11 11:02:00,64.3,55.1,29.66,ENE,76,3.0,8.0,72,0.00,,---,0.00,VWS V13.00,2013-06-11 17:02:00,
2013-06-11 11:07:00,65.0,56.5,29.65,ENE,74,0.0,8.0,74,0.00,,---,0.00,VWS V13.00,2013-06-11 17:07:00,
2013-06-11 11:12:00,65.3,55.7,29.65,SSE,157,5.0,7.0,71,0.00,,---,0.00,VWS V13.00,2013-06-11 17:12:00,
2013-06-11 11:17:00,64.9,55.7,29.65,South,169,4.0,7.0,72,0.00,,---,0.00,VWS V13.00,2013-06-11 17:17:00,
2013-06-11 11:22:00,64.7,54.7,29.68,South,184,3.0,7.0,70,0.00,,---,0.00,VWS V13.00,2013-06-11 17:22:00,
2013-06-11 11:27:00,64.5,55.3,29.68,South,184,0.0,7.0,72,0.00,,---,0.00,VWS V13.00,2013-06-11 17:27:00,
2013-06-11 11:32:00,64.3,54.3,29.68,South,184,0.0,7.0,70,0.00,,---,0.00,VWS V13.00,2013-06-11 17:32:00,
2013-06-11 11:37:00,64.2,55.8,29.68,South,185,0.0,7.0,74,0.00,,---,0.00,VWS V13.00,2013-06-11 17:37:00,
2013-06-11 11:42:00,64.2,54.6,29.68,South,184,0.0,0.0,71,0.00,,---,0.00,VWS V13.00,2013-06-11 17:42:00,
2013-06-11 11:47:00,64.3,55.1,29.68,South,185,2.0,2.0,72,0.00,,---,0.00,VWS V13.00,2013-06-11 17:47:00,
2013-06-11 11:52:00,64.4,55.2,29.68,South,185,1.0,3.0,72,0.00,,---,0.00,VWS V13.00,2013-06-11 17:52:00,
2013-06-11 11:57:00,64.6,56.1,29.68,South,184,2.0,3.0,74,0.00,,---,0.00,VWS V13.00,2013-06-11 17:57:00,
2013-06-11 12:02:00,65.0,56.9,29.68,ESE,123,3.0,4.0,75,0.00,,---,0.00,VWS V13.00,2013-06-11 18:02:00,
2013-06-11 12:07:00,65.1,55.1,29.68,ESE,109,1.0,4.0,70,0.00,,---,0.00,VWS V13.00,2013-06-11 18:07:00,
2013-06-11 12:12:00,65.0,55.4,29.68,East,92,0.0,1.0,71,0.00,,---,0.00,VWS V13.00,2013-06-11 18:12:00,
2013-06-11 12:17:00,65.0,55.4,29.68,NW,310,2.0,5.0,71,0.00,,---,0.00,VWS V13.00,2013-06-11 18:17:00,
2013-06-11 12:22:00,64.0,54.0,29.68,NW,308,5.0,10.0,70,0.00,,---,0.00,VWS V13.00,2013-06-11 18:22:00,
2013-06-11 12:27:00,62.7,53.9,29.69,NW,304,10.0,12.0,73,0.00,,---,0.00,VWS V13.00,2013-06-11 18:27:00,
2013-06-11 12:32:00,61.6,54.3,29.69,NW,306,11.0,13.0,77,0.00,,---,0.00,VWS V13.00,2013-06-11 18:32:00,
2013-06-11 12:37:00,60.8,53.9,29.71,WNW,293,13.0,16.0,78,0.00,,---,0.00,VWS V13.00,2013-06-11 18:37:00,
2013-06-11 12:42:00,60.2,54.0,29.71,NW,315,13.0,14.0,80,0.00,,---,0.00,VWS V13.00,2013-06-11 18:42:00,
2013-06-11 12:47:00,59.7,53.9,29.71,WNW,298,9.0,15.0,81,0.00,,---,0.00,VWS V13.00,2013-06-11 18:47:00,
2013-06-11 12:52:00,59.5,54.0,29.71,WNW,296,5.0,15.0,82,0.00,,---,0.00,VWS V13.00,2013-06-11 18:52:00,
2013-06-11 12:57:00,59.5,54.0,29.71,WNW,300,2.0,15.0,82,0.00,,---,0.00,VWS V13.00,2013-06-11 18:57:00,
2013-06-11 13:02:00,59.6,54.4,29.71,WNW,301,0.0,15.0,83,0.00,,---,0.00,VWS V13.00,2013-06-11 19:02:00,
2013-06-11 13:07:00,59.7,54.5,29.71,WNW,300,0.0,15.0,83,0.00,,---,0.00,VWS V13.00,2013-06-11 19:07:00,
2013-06-11 13:12:00,60.0,54.8,29.71,WNW,295,1.0,2.0,83,0.00,,---,0.00,VWS V13.00,2013-06-11 19:12:00,
2013-06-11 13:17:00,60.2,54.7,29.71,WNW,294,1.0,2.0,82,0.00,,---,0.00,VWS V13.00,2013-06-11 19:17:00,
2013-06-11 13:22:00,60.4,54.2,29.71,WNW,291,5.0,11.0,80,0.00,,---,0.00,VWS V13.00,2013-06-11 19:22:00,
2013-06-11 13:27:00,60.4,54.5,29.71,NW,308,10.0,12.0,81,0.00,,---,0.00,VWS V13.00,2013-06-11 19:27:00,
2013-06-11 13:32:00,60.3,54.5,29.71,WNW,302,1.0,12.0,81,0.00,,---,0.00,VWS V13.00,2013-06-11 19:32:00,
2013-06-11 13:37:00,60.4,54.5,29.71,WNW,302,0.0,12.0,81,0.00,,---,0.00,VWS V13.00,2013-06-11 19:37:00,
2013-06-11 13:42:00,60.7,54.8,29.71,WNW,302,0.0,1.0,81,0.00,,---,0.00,VWS V13.00,2013-06-11 19:42:00,
2013-06-11 13:47:00,61.2,55.7,29.71,WNW,303,0.0,1.0,82,0.00,,---,0.00,VWS V13.00,2013-06-11 19:47:00,
2013-06-11 13:52:00,61.5,55.6,29.71,WNW,302,0.0,1.0,81,0.00,,---,0.00,VWS V13.00,2013-06-11 19:52:00,
2013-06-11 13:57:00,61.6,55.0,29.69,WNW,298,0.0,2.0,79,0.00,,---,0.00,VWS V13.00,2013-06-11 19:57:00,
2013-06-11 14:02:00,61.6,55.4,29.69,West,277,6.0,9.0,80,0.00,,---,0.00,VWS V13.00,2013-06-11 20:02:00,
2013-06-11 14:07:00,61.0,54.5,29.69,WNW,285,18.0,20.0,79,0.00,,---,0.00,VWS V13.00,2013-06-11 20:07:00,
2013-06-11 14:12:00,59.8,54.0,29.71,West,280,12.0,17.0,81,0.00,,---,0.00,VWS V13.00,2013-06-11 20:12:00,
2013-06-11 14:17:00,59.0,53.5,29.71,WNW,296,12.0,17.0,82,0.00,,---,0.00,VWS V13.00,2013-06-11 20:17:00,
2013-06-11 14:22:00,58.6,53.8,29.71,WNW,295,12.0,17.0,84,0.00,,---,0.00,VWS V13.00,2013-06-11 20:22:00,
2013-06-11 14:27:00,58.3,53.8,29.71,WNW,302,6.0,17.0,85,0.00,,---,0.00,VWS V13.00,2013-06-11 20:27:00,
2013-06-11 14:32:00,58.4,54.5,29.71,West,281,11.0,17.0,87,0.00,,---,0.00,VWS V13.00,2013-06-11 20:32:00,
2013-06-11 14:37:00,58.4,54.2,29.72,West,277,16.0,18.0,86,0.00,,---,0.00,VWS V13.00,2013-06-11 20:37:00,
2013-06-11 14:42:00,57.9,53.4,29.72,WNW,302,13.0,20.0,85,0.00,,---,0.00,VWS V13.00,2013-06-11 20:42:00,
2013-06-11 14:47:00,57.6,53.1,29.72,NW,304,12.0,20.0,85,0.00,,---,0.00,VWS V13.00,2013-06-11 20:47:00,
2013-06-11 14:52:00,57.3,52.8,29.72,WNW,283,17.0,21.0,85,0.00,,---,0.00,VWS V13.00,2013-06-11 20:52:00,
2013-06-11 14:57:00,56.7,51.9,29.72,WNW,301,14.0,21.0,84,0.00,,---,0.00,VWS V13.00,2013-06-11 20:57:00,
2013-06-11 15:02:00,56.4,52.0,29.72,WNW,295,6.0,21.0,85,0.00,,---,0.00,VWS V13.00,2013-06-11 21:02:00,
2013-06-11 15:07:00,56.2,52.1,29.73,WNW,291,13.0,21.0,86,0.00,,---,0.00,VWS V13.00,2013-06-11 21:07:00,
2013-06-11 15:12:00,56.4,52.6,29.73,WNW,300,6.0,12.0,87,0.00,,---,0.00,VWS V13.00,2013-06-11 21:12:00,
2013-06-11 15:17:00,56.4,52.3,29.73,WNW,296,13.0,15.0,86,0.00,,---,0.00,VWS V13.00,2013-06-11 21:17:00,
2013-06-11 15:22:00,56.4,52.6,29.73,WNW,299,10.0,15.0,87,0.00,,---,0.00,VWS V13.00,2013-06-11 21:22:00,
2013-06-11 15:27:00,56.1,52.3,29.75,WNW,299,13.0,17.0,87,0.00,,---,0.00,VWS V13.00,2013-06-11 21:27:00,
2013-06-11 15:32:00,55.8,52.3,29.75,WNW,300,6.0,17.0,88,0.00,,---,0.00,VWS V13.00,2013-06-11 21:32:00,
2013-06-11 15:37:00,55.6,52.4,29.74,WNW,303,12.0,17.0,89,0.00,,---,0.00,VWS V13.00,2013-06-11 21:37:00,
2013-06-11 15:42:00,55.6,52.4,29.74,WNW,302,7.0,11.0,89,0.00,,---,0.00,VWS V13.00,2013-06-11 21:42:00,
2013-06-11 15:47:00,55.5,52.6,29.74,WNW,296,6.0,11.0,90,0.00,,---,0.00,VWS V13.00,2013-06-11 21:47:00,
2013-06-11 15:52:00,55.4,52.5,29.74,WNW,286,6.0,13.0,90,0.00,,---,0.00,VWS V13.00,2013-06-11 21:52:00,
2013-06-11 15:57:00,55.3,52.7,29.76,West,273,10.0,13.0,91,0.00,,---,0.00,VWS V13.00,2013-06-11 21:57:00,
2013-06-11 16:02:00,55.3,52.7,29.76,West,277,10.0,14.0,91,0.00,,---,0.00,VWS V13.00,2013-06-11 22:02:00,
2013-06-11 16:07:00,55.2,52.9,29.78,WSW,256,14.0,16.0,92,0.00,,---,0.00,VWS V13.00,2013-06-11 22:07:00,
2013-06-11 16:12:00,55.0,52.7,29.78,SW,233,27.0,27.0,92,0.01,,---,0.01,VWS V13.00,2013-06-11 22:12:00,
2013-06-11 16:17:00,53.5,49.4,29.78,WSW,244,17.0,32.0,86,0.28,,---,0.28,VWS V13.00,2013-06-11 22:17:00,
2013-06-11 16:22:00,51.9,48.2,29.78,WSW,244,7.0,32.0,87,0.38,,---,0.38,VWS V13.00,2013-06-11 22:22:00,
2013-06-11 16:27:00,50.9,47.2,29.82,WSW,238,11.0,32.0,87,0.41,,---,0.41,VWS V13.00,2013-06-11 22:27:00,
2013-06-11 16:32:00,50.3,47.2,29.82,SSW,200,16.0,32.0,89,0.42,,---,0.42,VWS V13.00,2013-06-11 22:32:00,
2013-06-11 16:37:00,49.8,47.0,29.82,South,179,0.0,32.0,90,0.43,,---,0.43,VWS V13.00,2013-06-11 22:37:00,
2013-06-11 16:42:00,49.5,46.7,29.85,South,182,0.0,5.0,90,0.44,,---,0.44,VWS V13.00,2013-06-11 22:42:00,
2013-06-11 16:47:00,49.3,46.8,29.85,South,180,0.0,5.0,91,0.45,,---,0.45,VWS V13.00,2013-06-11 22:47:00,
2013-06-11 16:52:00,49.3,47.1,29.85,South,181,0.0,5.0,92,0.46,,---,0.46,VWS V13.00,2013-06-11 22:52:00,
2013-06-11 16:57:00,49.2,47.3,29.85,SE,145,1.0,5.0,93,0.47,,---,0.47,VWS V13.00,2013-06-11 22:57:00,
2013-06-11 17:02:00,49.2,47.3,29.85,SE,145,1.0,5.0,93,0.49,,---,0.49,VWS V13.00,2013-06-11 23:02:00,
2013-06-11 17:07:00,49.5,47.8,29.85,SE,145,1.0,5.0,94,0.51,,---,0.51,VWS V13.00,2013-06-11 23:07:00,
2013-06-11 17:12:00,49.6,48.0,29.84,SE,140,2.0,2.0,94,0.53,,---,0.53,VWS V13.00,2013-06-11 23:12:00,
2013-06-11 17:17:00,49.8,48.2,29.84,SE,132,1.0,3.0,94,0.55,,---,0.55,VWS V13.00,2013-06-11 23:17:00,
2013-06-11 17:22:00,49.9,48.5,29.84,SE,132,1.0,3.0,95,0.56,,---,0.56,VWS V13.00,2013-06-11 23:22:00,
2013-06-11 17:27:00,49.9,48.2,29.84,SE,140,1.0,3.0,94,0.58,,---,0.58,VWS V13.00,2013-06-11 23:27:00,
2013-06-11 17:32:00,50.0,48.6,29.84,SE,141,2.0,3.0,95,0.59,,---,0.59,VWS V13.00,2013-06-11 23:32:00,
2013-06-11 17:37:00,50.0,48.6,29.84,SE,141,1.0,3.0,95,0.60,,---,0.60,VWS V13.00,2013-06-11 23:37:00,
2013-06-11 17:42:00,50.0,48.6,29.84,SE,141,1.0,2.0,95,0.18,,---,0.61,VWS V13.00,2013-06-11 23:42:00,
2013-06-11 17:47:00,50.0,48.6,29.84,SE,141,0.0,2.0,95,0.19,,---,0.63,VWS V13.00,2013-06-11 23:47:00,
2013-06-11 17:52:00,50.1,48.7,29.84,SE,140,0.0,2.0,95,0.21,,---,0.64,VWS V13.00,2013-06-11 23:52:00,
2013-06-11 17:57:00,50.2,48.8,29.83,SE,140,1.0,2.0,95,0.23,,---,0.66,VWS V13.00,2013-06-11 23:57:00,
2013-06-11 18:02:00,50.2,48.8,29.83,SE,140,2.0,6.0,95,0.24,,---,0.67,VWS V13.00,2013-06-12 00:02:00,
2013-06-11 18:07:00,50.3,48.9,29.83,ESE,113,3.0,7.0,95,0.26,,---,0.69,VWS V13.00,2013-06-12 00:07:00,
2013-06-11 18:12:00,50.3,48.9,29.82,ESE,112,1.0,3.0,95,0.19,,---,0.71,VWS V13.00,2013-06-12 00:12:00,
2013-06-11 18:17:00,50.3,49.2,29.82,ESE,115,1.0,3.0,96,0.21,,---,0.72,VWS V13.00,2013-06-12 00:17:00,
2013-06-11 18:22:00,50.3,49.2,29.82,ESE,114,2.0,4.0,96,0.23,,---,0.74,VWS V13.00,2013-06-12 00:22:00,
2013-06-11 18:27:00,50.3,49.2,29.82,ESE,114,1.0,4.0,96,0.24,,---,0.75,VWS V13.00,2013-06-12 00:27:00,
2013-06-11 18:32:00,50.3,49.2,29.82,ESE,115,1.0,4.0,96,0.25,,---,0.76,VWS V13.00,2013-06-12 00:32:00,
2013-06-11 18:37:00,50.4,49.3,29.82,ESE,115,1.0,4.0,96,0.26,,---,0.77,VWS V13.00,2013-06-12 00:37:00,
2013-06-11 18:42:00,50.4,49.3,29.81,ESE,114,1.0,2.0,96,0.18,,---,0.78,VWS V13.00,2013-06-12 00:42:00,
2013-06-11 18:47:00,50.5,49.4,29.81,ESE,115,0.0,2.0,96,0.19,,---,0.79,VWS V13.00,2013-06-12 00:47:00,
2013-06-11 18:52:00,50.5,49.4,29.81,SE,136,1.0,2.0,96,0.21,,---,0.81,VWS V13.00,2013-06-12 00:52:00,
2013-06-11 18:57:00,50.6,49.5,29.81,South,171,1.0,3.0,96,0.22,,---,0.82,VWS V13.00,2013-06-12 00:57:00,
2013-06-11 19:02:00,50.6,49.5,29.81,SSW,209,2.0,4.0,96,0.23,,---,0.83,VWS V13.00,2013-06-12 01:02:00,
2013-06-11 19:07:00,50.7,49.6,29.82,SW,214,2.0,4.0,96,0.23,,---,0.83,VWS V13.00,2013-06-12 01:07:00,
2013-06-11 19:12:00,50.8,49.7,29.82,SW,214,2.0,2.0,96,0.14,,---,0.83,VWS V13.00,2013-06-12 01:12:00,
2013-06-11 19:17:00,51.0,49.9,29.82,SW,214,0.0,2.0,96,0.14,,---,0.83,VWS V13.00,2013-06-12 01:17:00,
2013-06-11 19:22:00,51.1,50.0,29.81,SW,214,1.0,3.0,96,0.14,,---,0.83,VWS V13.00,2013-06-12 01:22:00,
2013-06-11 19:27:00,51.2,50.1,29.81,SW,214,0.0,3.0,96,0.14,,---,0.83,VWS V13.00,2013-06-12 01:27:00,
2013-06-11 19:32:00,51.3,50.2,29.81,SW,214,0.0,3.0,96,0.14,,---,0.83,VWS V13.00,2013-06-12 01:32:00,
2013-06-11 19:37:00,51.4,50.3,29.82,SW,214,0.0,3.0,96,0.14,,---,0.83,VWS V13.00,2013-06-12 01:37:00,
2013-06-11 19:42:00,51.4,50.3,29.82,SW,214,0.0,0.0,96,0.06,,---,0.83,VWS V13.00,2013-06-12 01:42:00,
2013-06-11 19:47:00,51.4,50.3,29.82,WNW,302,0.0,0.0,96,0.06,,---,0.83,VWS V13.00,2013-06-12 01:47:00,
2013-06-11 19:52:00,51.4,50.3,29.82,WNW,302,0.0,0.0,96,0.06,,---,0.83,VWS V13.00,2013-06-12 01:52:00,
2013-06-11 19:57:00,51.5,50.4,29.82,WNW,302,0.0,0.0,96,0.06,,---,0.83,VWS V13.00,2013-06-12 01:57:00,
2013-06-11 20:02:00,51.4,50.3,29.82,NNE,16,1.0,1.0,96,0.06,,---,0.83,VWS V13.00,2013-06-12 02:02:00,
2013-06-11 20:07:00,51.4,50.3,29.82,ENE,72,2.0,4.0,96,0.06,,---,0.83,VWS V13.00,2013-06-12 02:07:00,
2013-06-11 20:12:00,51.3,50.2,29.82,East,80,4.0,5.0,96,0.00,,---,0.83,VWS V13.00,2013-06-12 02:12:00,
2013-06-11 20:17:00,51.2,50.1,29.82,ESE,103,4.0,7.0,96,0.00,,---,0.83,VWS V13.00,2013-06-12 02:17:00,
2013-06-11 20:22:00,51.3,50.2,29.81,East,101,4.0,7.0,96,0.00,,---,0.83,VWS V13.00,2013-06-12 02:22:00,
2013-06-11 20:27:00,51.3,50.2,29.81,East,101,2.0,7.0,96,0.00,,---,0.83,VWS V13.00,2013-06-12 02:27:00,
2013-06-11 20:32:00,51.2,50.1,29.81,East,101,2.0,7.0,96,0.00,,---,0.83,VWS V13.00,2013-06-12 02:32:00,
2013-06-11 20:37:00,51.3,50.2,29.81,East,101,3.0,7.0,96,0.00,,---,0.83,VWS V13.00,2013-06-12 02:37:00,
2013-06-11 20:42:00,51.3,50.2,29.81,East,101,4.0,4.0,96,0.00,,---,0.83,VWS V13.00,2013-06-12 02:42:00,
2013-06-11 20:47:00,51.3,50.2,29.81,East,101,1.0,5.0,96,0.00,,---,0.83,VWS V13.00,2013-06-12 02:47:00,
2013-06-11 20:52:00,51.3,50.2,29.81,East,101,1.0,5.0,96,0.00,,---,0.83,VWS V13.00,2013-06-12 02:52:00,
2013-06-11 20:57:00,51.3,50.2,29.81,East,101,3.0,5.0,96,0.00,,---,0.83,VWS V13.00,2013-06-12 02:57:00,
2013-06-11 21:02:00,51.4,50.3,29.81,ESE,106,5.0,5.0,96,0.00,,---,0.83,VWS V13.00,2013-06-12 03:02:00,
2013-06-11 21:07:00,51.4,50.3,29.81,ESE,106,3.0,6.0,96,0.00,,---,0.83,VWS V13.00,2013-06-12 03:07:00,
2013-06-11 21:12:00,51.4,50.3,29.81,SE,130,6.0,6.0,96,0.00,,---,0.83,VWS V13.00,2013-06-12 03:12:00,
2013-06-11 21:17:00,51.5,50.4,29.81,ESE,123,2.0,6.0,96,0.00,,---,0.83,VWS V13.00,2013-06-12 03:17:00,
2013-06-11 21:22:00,51.5,50.4,29.83,ESE,107,3.0,7.0,96,0.00,,---,0.83,VWS V13.00,2013-06-12 03:22:00,
2013-06-11 21:27:00,51.5,50.4,29.83,ESE,108,3.0,7.0,96,0.00,,---,0.83,VWS V13.00,2013-06-12 03:27:00,
2013-06-11 21:32:00,51.5,50.4,29.83,West,261,4.0,7.0,96,0.00,,---,0.83,VWS V13.00,2013-06-12 03:32:00,
2013-06-11 21:37:00,51.6,50.5,29.88,WSW,258,1.0,7.0,96,0.00,,---,0.83,VWS V13.00,2013-06-12 03:37:00,
2013-06-11 21:42:00,51.7,50.6,29.88,WSW,245,2.0,2.0,96,0.00,,---,0.83,VWS V13.00,2013-06-12 03:42:00,
2013-06-11 21:47:00,51.7,50.6,29.88,East,89,0.0,5.0,96,0.00,,---,0.83,VWS V13.00,2013-06-12 03:47:00,
2013-06-11 21:52:00,51.7,50.6,29.85,SE,136,3.0,5.0,96,0.00,,---,0.83,VWS V13.00,2013-06-12 03:52:00,
2013-06-11 21:57:00,51.7,50.6,29.85,ESE,113,5.0,6.0,96,0.00,,---,0.83,VWS V13.00,2013-06-12 03:57:00,
2013-06-11 22:01:00,51.7,50.6,29.85,ESE,105,3.0,6.0,96,0.00,,---,0.83,VWS V13.00,2013-06-12 04:01:00,
2013-06-11 22:06:00,51.8,50.7,29.85,ESE,105,0.0,6.0,96,0.00,,---,0.83,VWS V13.00,2013-06-12 04:06:00,
2013-06-11 22:11:00,51.8,50.7,29.86,ESE,105,0.0,0.0,96,0.00,,---,0.83,VWS V13.00,2013-06-12 04:11:00,
2013-06-11 22:17:00,51.8,50.7,29.86,ESE,105,0.0,0.0,96,0.00,,---,0.83,VWS V13.00,2013-06-12 04:17:00,
2013-06-11 22:22:00,51.8,50.7,29.86,ESE,105,0.0,0.0,96,0.00,,---,0.83,VWS V13.00,2013-06-12 04:22:00,
2013-06-11 22:27:00,51.8,50.7,29.87,ESE,105,0.0,0.0,96,0.00,,---,0.83,VWS V13.00,2013-06-12 04:27:00,
2013-06-11 22:32:00,51.9,50.8,29.87,ESE,105,0.0,0.0,96,0.00,,---,0.83,VWS V13.00,2013-06-12 04:32:00,
2013-06-11 22:37:00,51.9,50.8,29.87,ESE,105,0.0,0.0,96,0.00,,---,0.83,VWS V13.00,2013-06-12 04:37:00,
2013-06-11 22:42:00,51.9,50.5,29.88,ESE,105,0.0,0.0,95,0.00,,---,0.83,VWS V13.00,2013-06-12 04:42:00,
2013-06-11 22:47:00,51.9,50.5,29.88,ESE,105,0.0,0.0,95,0.00,,---,0.83,VWS V13.00,2013-06-12 04:47:00,
2013-06-11 22:52:00,51.8,50.4,29.88,ESE,105,3.0,4.0,95,0.00,,---,0.83,VWS V13.00,2013-06-12 04:52:00,
2013-06-11 22:57:00,51.8,50.4,29.87,ESE,105,0.0,4.0,95,0.00,,---,0.83,VWS V13.00,2013-06-12 04:57:00,
2013-06-11 23:02:00,51.8,50.4,29.87,ESE,105,0.0,4.0,95,0.00,,---,0.83,VWS V13.00,2013-06-12 05:02:00,
2013-06-11 23:07:00,51.8,50.4,29.87,ESE,105,0.0,4.0,95,0.00,,---,0.83,VWS V13.00,2013-06-12 05:07:00,
2013-06-11 23:12:00,51.8,50.4,29.88,ESE,105,0.0,0.0,95,0.00,,---,0.83,VWS V13.00,2013-06-12 05:12:00,
2013-06-11 23:17:00,51.7,50.3,29.88,ESE,105,0.0,0.0,95,0.00,,---,0.83,VWS V13.00,2013-06-12 05:17:00,
2013-06-11 23:22:00,51.7,50.3,29.88,ESE,105,0.0,0.0,95,0.00,,---,0.83,VWS V13.00,2013-06-12 05:22:00,
2013-06-11 23:27:00,51.7,50.3,29.88,ESE,105,0.0,0.0,95,0.00,,---,0.83,VWS V13.00,2013-06-12 05:27:00,
2013-06-11 23:32:00,51.7,50.3,29.88,ESE,105,0.0,0.0,95,0.00,,---,0.83,VWS V13.00,2013-06-12 05:32:00,
2013-06-11 23:37:00,51.6,50.2,29.88,ESE,105,0.0,0.0,95,0.00,,---,0.83,VWS V13.00,2013-06-12 05:37:00,
2013-06-11 23:42:00,51.5,50.1,29.88,ESE,106,0.0,0.0,95,0.00,,---,0.00,VWS V13.00,2013-06-12 05:42:00,
2013-06-11 23:47:00,51.5,50.1,29.88,ESE,111,2.0,2.0,95,0.00,,---,0.00,VWS V13.00,2013-06-12 05:47:00,
2013-06-11 23:52:00,51.4,50.0,29.88,ESE,111,1.0,2.0,95,0.00,,---,0.00,VWS V13.00,2013-06-12 05:52:00,
2013-06-11 23:57:00,51.4,50.0,29.89,ESE,112,2.0,2.0,95,0.00,,---,0.00,VWS V13.00,2013-06-12 05:57:00,